| time (UTC) | temp F | wind direction | speed MPH | gust MPH | rain 1hr in | rain 24hr in | rain mn in | humidity % | barometer mb |
| 20260505041654 | 43 | 210 | 3.0 | 3.0 | 0.00 | 0.62 | 0.62 | 97 | 1007.5 |
| 20260505041151 | 43 | 24 | 2.0 | 6.0 | 0.00 | 0.62 | 0.62 | 97 | 1007.4 |
| 20260505040648 | 43 | 181 | 2.0 | 6.0 | 0.00 | 0.62 | 0.62 | 96 | 1007.7 |
| 20260505040145 | 43 | 305 | 5.0 | 7.0 | 0.00 | 0.62 | 0.62 | 96 | 1007.7 |
| 20260505035642 | 43 | 184 | 1.0 | 6.0 | 0.00 | 0.62 | 0.62 | 96 | 1007.7 |
| 20260505035138 | 43 | 313 | 5.0 | 8.0 | 0.00 | 0.62 | 0.62 | 95 | 1007.8 |
| 20260505034635 | 44 | 190 | 2.0 | 6.0 | 0.00 | 0.62 | 0.62 | 95 | 1008.1 |
| 20260505034132 | 44 | 12 | 2.0 | 4.0 | 0.00 | 0.62 | 0.62 | 95 | 1008.3 |
| 20260505033628 | 44 | 200 | 3.0 | 6.0 | 0.00 | 0.62 | 0.62 | 94 | 1008.1 |
| 20260505033127 | 44 | 325 | 5.0 | 7.0 | 0.00 | 0.62 | 0.62 | 94 | 1008.2 |
| 20260505032624 | 44 | 55 | 2.0 | 3.0 | 0.00 | 0.62 | 0.62 | 95 | 1008.1 |
| 20260505032120 | 44 | 223 | 6.0 | 7.0 | 0.00 | 0.62 | 0.62 | 94 | 1008.3 |
| 20260505031618 | 44 | 297 | 4.0 | 7.0 | 0.00 | 0.62 | 0.62 | 94 | 1008.1 |
| 20260505031114 | 44 | 251 | 3.0 | 4.0 | 0.00 | 0.62 | 0.62 | 93 | 1008.5 |
| 20260505030611 | 44 | 204 | 3.0 | 3.0 | 0.00 | 0.62 | 0.62 | 93 | 1008.7 |
| 20260505030107 | 45 | 136 | 1.0 | 2.0 | 0.00 | 0.62 | 0.62 | 93 | 1008.8 |
| 20260505025602 | 44 | 234 | 2.0 | 4.0 | 0.00 | 0.62 | 0.62 | 94 | 1009.0 |
| 20260505025057 | 44 | 251 | 3.0 | 4.0 | 0.00 | 0.62 | 0.62 | 94 | 1008.7 |
| 20260505024553 | 44 | 12 | 4.0 | 4.0 | 0.00 | 0.62 | 0.62 | 94 | 1008.8 |
| 20260505024050 | 44 | 250 | 4.0 | 6.0 | 0.00 | 0.62 | 0.62 | 95 | 1008.9 |
| 20260505023547 | 44 | 299 | 3.0 | 7.0 | 0.00 | 0.62 | 0.62 | 95 | 1009.0 |
| 20260505023044 | 44 | 294 | 7.0 | 9.0 | 0.00 | 0.62 | 0.62 | 94 | 1009.1 |
| 20260505022542 | 44 | 203 | 2.0 | 3.0 | 0.00 | 0.62 | 0.62 | 94 | 1009.4 |
| 20260505022039 | 44 | 316 | 5.0 | 7.0 | 0.00 | 0.62 | 0.62 | 93 | 1009.5 |
| 20260505021536 | 45 | 336 | 4.0 | 4.0 | 0.00 | 0.62 | 0.62 | 93 | 1009.6 |
| 20260505021033 | 44 | 195 | 2.0 | 4.0 | 0.00 | 0.62 | 0.62 | 93 | 1009.6 |
| 20260505020532 | 44 | 259 | 3.0 | 4.0 | 0.00 | 0.62 | 0.62 | 94 | 1009.7 |
| 20260505020029 | 44 | 349 | 3.0 | 8.0 | 0.00 | 0.62 | 0.62 | 94 | 1009.6 |
| 20260505015526 | 44 | 273 | 2.0 | 6.0 | 0.00 | 0.62 | 0.62 | 94 | 1009.6 |
| 20260505015023 | 45 | 338 | 6.0 | 8.0 | 0.00 | 0.62 | 0.62 | 92 | 1009.8 |
| 20260505014520 | 45 | 21 | 3.0 | 7.0 | 0.00 | 0.62 | 0.62 | 93 | 1009.8 |
| 20260505014017 | 44 | 352 | 2.0 | 6.0 | 0.00 | 0.62 | 0.62 | 93 | 1009.9 |
| 20260505013514 | 44 | 290 | 4.0 | 8.0 | 0.00 | 0.62 | 0.62 | 93 | 1009.9 |
| 20260505013012 | 44 | 315 | 5.0 | 7.0 | 0.00 | 0.62 | 0.62 | 93 | 1010.0 |
| 20260505012510 | 44 | 340 | 5.0 | 8.0 | 0.00 | 0.62 | 0.62 | 92 | 1010.4 |
| 20260505012006 | 45 | 340 | 6.0 | 9.0 | 0.00 | 0.62 | 0.62 | 92 | 1010.3 |
| 20260505011502 | 45 | 321 | 4.0 | 7.0 | 0.00 | 0.62 | 0.62 | 92 | 1010.8 |
| 20260505010959 | 45 | 228 | 3.0 | 6.0 | 0.00 | 0.62 | 0.62 | 91 | 1010.9 |
| 20260505010455 | 45 | 321 | 6.0 | 8.0 | 0.00 | 0.62 | 0.62 | 91 | 1010.7 |
| 20260505005951 | 45 | 257 | 1.0 | 3.0 | 0.00 | 0.62 | 0.62 | 92 | 1011.0 |
| 20260505005448 | 44 | 214 | 4.0 | 6.0 | 0.00 | 0.62 | 0.62 | 93 | 1011.0 |
| 20260505004946 | 44 | 227 | 3.0 | 6.0 | 0.00 | 0.62 | 0.62 | 93 | 1011.3 |
| 20260505004442 | 44 | 203 | 3.0 | 7.0 | 0.00 | 0.62 | 0.62 | 93 | 1011.2 |
| 20260505003939 | 44 | 352 | 3.0 | 8.0 | 0.00 | 0.62 | 0.62 | 93 | 1011.3 |
| 20260505003436 | 44 | 298 | 3.0 | 8.0 | 0.00 | 0.62 | 0.62 | 94 | 1011.5 |
| 20260505002932 | 44 | 324 | 4.0 | 9.0 | 0.00 | 0.62 | 0.62 | 94 | 1011.8 |
| 20260505002428 | 44 | 212 | 3.0 | 4.0 | 0.00 | 0.62 | 0.62 | 94 | 1011.8 |
| 20260505001927 | 44 | 327 | 4.0 | 6.0 | 0.00 | 0.62 | 0.62 | 94 | 1011.6 |
| 20260505001424 | 44 | 16 | 4.0 | 6.0 | 0.00 | 0.62 | 0.62 | 94 | 1011.6 |
| 20260505000921 | 44 | 113 | 1.0 | 6.0 | 0.00 | 0.62 | 0.62 | 95 | 1011.7 |
| 20260505000420 | 44 | 330 | 4.0 | 8.0 | 0.00 | 0.62 | 0.62 | 95 | 1011.9 |
| 20260504235916 | 44 | 291 | 3.0 | 6.0 | 0.00 | 0.62 | 0.62 | 95 | 1012.1 |
| 20260504235413 | 44 | 336 | 4.0 | 6.0 | 0.00 | 0.62 | 0.62 | 95 | 1012.3 |
| 20260504234909 | 44 | 159 | 2.0 | 4.0 | 0.00 | 0.62 | 0.62 | 96 | 1012.5 |
| 20260504234407 | 43 | 321 | 4.0 | 6.0 | 0.00 | 0.62 | 0.62 | 96 | 1012.4 |
| 20260504233903 | 43 | 310 | 6.0 | 7.0 | 0.00 | 0.62 | 0.62 | 96 | 1012.8 |
| 20260504233359 | 43 | 301 | 3.0 | 6.0 | 0.00 | 0.62 | 0.62 | 95 | 1012.9 |
| 20260504232855 | 44 | 129 | 2.0 | 4.0 | 0.00 | 0.62 | 0.62 | 96 | 1013.0 |
| 20260504232353 | 43 | 330 | 7.0 | 8.0 | 0.00 | 0.62 | 0.62 | 96 | 1012.7 |
| 20260504231849 | 43 | 330 | 5.0 | 8.0 | 0.00 | 0.62 | 0.62 | 96 | 1013.0 |
| 20260504231346 | 43 | 11 | 4.0 | 6.0 | 0.00 | 0.62 | 0.62 | 97 | 1013.1 |
| 20260504230842 | 43 | 309 | 4.0 | 6.0 | 0.00 | 0.62 | 0.62 | 97 | 1013.1 |
| 20260504230340 | 42 | 21 | 4.0 | 8.0 | 0.00 | 0.62 | 0.62 | 98 | 1013.2 |
| 20260504225839 | 42 | 8 | 7.0 | 8.0 | 0.00 | 0.62 | 0.62 | 98 | 1013.4 |
| 20260504225335 | 43 | 206 | 2.0 | 4.0 | 0.00 | 0.62 | 0.62 | 98 | 1013.4 |
| 20260504224832 | 43 | 182 | 2.0 | 2.0 | 0.00 | 0.62 | 0.62 | 99 | 1013.4 |
| 20260504224329 | 42 | 215 | 2.0 | 6.0 | 0.00 | 0.62 | 0.62 | 99 | 1013.3 |
| 20260504223826 | 42 | 335 | 6.0 | 7.0 | 0.00 | 0.62 | 0.62 | 99 | 1013.5 |
| 20260504223321 | 42 | 317 | 5.0 | 7.0 | 0.00 | 0.62 | 0.62 | 99 | 1013.5 |
| 20260504222818 | 42 | 350 | 4.0 | 6.0 | 0.00 | 0.62 | 0.62 | 99 | 1013.7 |
| 20260504222315 | 42 | 44 | 1.0 | 6.0 | 0.00 | 0.62 | 0.62 | 99 | 1013.8 |
| 20260504221814 | 42 | 324 | 4.0 | 4.0 | 0.00 | 0.62 | 0.62 | 99 | 1013.7 |
| 20260504221310 | 43 | 309 | 3.0 | 4.0 | 0.00 | 0.62 | 0.62 | 99 | 1013.9 |
| 20260504220807 | 43 | 329 | 5.0 | 8.0 | 0.00 | 0.62 | 0.62 | 99 | 1013.9 |
| 20260504220303 | 43 | 132 | 2.0 | 2.0 | 0.00 | 0.62 | 0.62 | 99 | 1014.0 |
| 20260504215801 | 42 | 231 | 1.0 | 3.0 | 0.00 | 0.62 | 0.62 | 99 | 1014.1 |
| 20260504215257 | 42 | 227 | 1.0 | 4.0 | 0.00 | 0.62 | 0.62 | 99 | 1014.6 |
| 20260504214753 | 42 | 197 | 1.0 | 2.0 | 0.00 | 0.62 | 0.62 | 99 | 1014.7 |
| 20260504214250 | 43 | 212 | 2.0 | 2.0 | 0.00 | 0.62 | 0.62 | 99 | 1014.6 |
| 20260504213747 | 42 | 146 | 0.0 | 4.0 | 0.00 | 0.62 | 0.62 | 99 | 1014.5 |
| 20260504213243 | 42 | 186 | 0.0 | 1.0 | 0.00 | 0.62 | 0.62 | 99 | 1014.4 |
| 20260504212741 | 42 | 191 | 0.0 | 2.0 | 0.00 | 0.62 | 0.62 | 99 | 1014.4 |
| 20260504212237 | 42 | 231 | 2.0 | 2.0 | 0.00 | 0.62 | 0.62 | 99 | 1014.4 |
| 20260504211735 | 42 | 348 | 3.0 | 4.0 | 0.00 | 0.62 | 0.62 | 99 | 1014.3 |
| 20260504211231 | 42 | 234 | 2.0 | 3.0 | 0.00 | 0.62 | 0.62 | 99 | 1014.6 |
| 20260504210729 | 42 | 233 | 2.0 | 2.0 | 0.00 | 0.62 | 0.62 | 99 | 1014.6 |
| 20260504210226 | 42 | 193 | 0.0 | 2.0 | 0.00 | 0.62 | 0.62 | 99 | 1014.9 |
| 20260504205722 | 42 | 201 | 1.0 | 2.0 | 0.00 | 0.62 | 0.62 | 99 | 1014.9 |
| 20260504205220 | 42 | 181 | 1.0 | 1.0 | 0.00 | 0.62 | 0.62 | 99 | 1015.1 |
| 20260504204718 | 42 | 172 | 0.0 | 1.0 | 0.00 | 0.62 | 0.62 | 99 | 1015.0 |
| 20260504204216 | 42 | 19 | 3.0 | 6.0 | 0.00 | 0.62 | 0.62 | 99 | 1014.8 |
| 20260504203715 | 42 | 333 | 3.0 | 3.0 | 0.00 | 0.62 | 0.62 | 99 | 1015.1 |
| 20260504203212 | 42 | 322 | 3.0 | 6.0 | 0.00 | 0.62 | 0.62 | 99 | 1015.3 |
| 20260504202712 | 42 | 251 | 2.0 | 4.0 | 0.00 | 0.62 | 0.62 | 99 | 1015.2 |
| 20260504202209 | 42 | 240 | 2.0 | 4.0 | 0.00 | 0.62 | 0.62 | 99 | 1015.4 |
| 20260504201706 | 42 | 171 | 0.0 | 2.0 | 0.00 | 0.62 | 0.62 | 99 | 1015.7 |
| 20260504201204 | 42 | 291 | 3.0 | 3.0 | 0.00 | 0.62 | 0.62 | 99 | 1015.5 |
| 20260504200701 | 42 | 177 | 0.0 | 2.0 | 0.00 | 0.62 | 0.62 | 99 | 1016.0 |
| 20260504200157 | 42 | 335 | 2.0 | 4.0 | 0.00 | 0.62 | 0.62 | 99 | 1015.9 |
| 20260504195653 | 42 | 161 | 0.0 | 1.0 | 0.00 | 0.62 | 0.62 | 99 | 1016.2 |
| 20260504195149 | 41 | 190 | 4.0 | 6.0 | 0.00 | 0.62 | 0.62 | 99 | 1016.3 |
| 20260504194646 | 42 | 21 | 3.0 | 7.0 | 0.00 | 0.62 | 0.62 | 99 | 1016.3 |
| 20260504194142 | 42 | 291 | 2.0 | 3.0 | 0.00 | 0.62 | 0.62 | 99 | 1016.6 |
| 20260504193639 | 42 | 289 | 3.0 | 4.0 | 0.00 | 0.62 | 0.62 | 99 | 1016.9 |
| 20260504193137 | 42 | 210 | 2.0 | 3.0 | 0.00 | 0.62 | 0.62 | 99 | 1016.7 |
| 20260504192635 | 42 | 188 | 1.0 | 2.0 | 0.00 | 0.62 | 0.62 | 99 | 1016.8 |
| 20260504192133 | 42 | 307 | 5.0 | 7.0 | 0.00 | 0.62 | 0.62 | 99 | 1016.7 |
| 20260504191631 | 42 | 282 | 7.0 | 9.0 | 0.00 | 0.62 | 0.62 | 99 | 1016.6 |
| 20260504191127 | 42 | 85 | 1.0 | 4.0 | 0.00 | 0.62 | 0.62 | 99 | 1016.8 |
| 20260504190623 | 41 | 294 | 4.0 | 6.0 | 0.05 | 0.62 | 0.62 | 99 | 1016.7 |
| 20260504190120 | 41 | 226 | 4.0 | 6.0 | 0.00 | 0.61 | 0.61 | 99 | 1016.9 |
| 20260504185616 | 41 | 297 | 5.0 | 8.0 | 0.00 | 0.61 | 0.61 | 99 | 1016.7 |
| 20260504185113 | 41 | 190 | 2.0 | 6.0 | 0.00 | 0.61 | 0.61 | 99 | 1016.9 |
| 20260504184609 | 41 | 32 | 2.0 | 4.0 | 0.07 | 0.61 | 0.61 | 99 | 1016.8 |
| 20260504184104 | 41 | 223 | 3.0 | 4.0 | 0.07 | 0.61 | 0.61 | 99 | 1017.0 |
| 20260504183601 | 41 | 341 | 6.0 | 7.0 | 0.00 | 0.60 | 0.60 | 99 | 1017.0 |
| 20260504183059 | 41 | 201 | 2.0 | 3.0 | 0.00 | 0.60 | 0.60 | 99 | 1016.9 |
| 20260504182556 | 41 | 281 | 2.0 | 3.0 | 0.05 | 0.60 | 0.60 | 99 | 1016.8 |
| 20260504182053 | 41 | 188 | 1.0 | 4.0 | 0.05 | 0.60 | 0.60 | 99 | 1017.1 |
| 20260504181550 | 41 | 330 | 3.0 | 4.0 | 0.00 | 0.59 | 0.59 | 99 | 1017.1 |
| 20260504181048 | 41 | 345 | 2.0 | 4.0 | 0.00 | 0.59 | 0.59 | 99 | 1017.1 |
| 20260504180547 | 41 | 261 | 3.0 | 4.0 | 0.07 | 0.59 | 0.59 | 99 | 1017.3 |
| 20260504180046 | 40 | 285 | 3.0 | 4.0 | 0.07 | 0.59 | 0.59 | 99 | 1017.2 |
| 20260504175542 | 40 | 40 | 2.0 | 4.0 | 0.05 | 0.58 | 0.58 | 99 | 1017.4 |
| 20260504175039 | 40 | 345 | 3.0 | 6.0 | 0.05 | 0.58 | 0.58 | 99 | 1017.4 |
| 20260504174537 | 40 | 17 | 3.0 | 6.0 | 0.07 | 0.57 | 0.57 | 99 | 1017.3 |
| 20260504174034 | 40 | 311 | 4.0 | 4.0 | 0.00 | 0.56 | 0.56 | 99 | 1017.4 |
| 20260504173531 | 41 | 313 | 2.0 | 4.0 | 0.07 | 0.56 | 0.56 | 99 | 1017.4 |
| 20260504173028 | 41 | 201 | 1.0 | 4.0 | 0.00 | 0.55 | 0.55 | 99 | 1017.6 |
| 20260504172524 | 40 | 242 | 2.0 | 3.0 | 0.05 | 0.55 | 0.55 | 99 | 1017.5 |
| 20260504172021 | 40 | 230 | 2.0 | 3.0 | 0.05 | 0.55 | 0.55 | 99 | 1017.7 |
| 20260504171518 | 40 | 220 | 2.0 | 3.0 | 0.07 | 0.54 | 0.54 | 99 | 1017.8 |
| 20260504171015 | 40 | 191 | 1.0 | 2.0 | 0.07 | 0.54 | 0.54 | 99 | 1017.9 |
| 20260504170510 | 40 | 190 | 0.0 | 2.0 | 0.05 | 0.53 | 0.53 | 99 | 1017.9 |
| 20260504160431 | 40 | 288 | 3.0 | 4.0 | 0.07 | 0.46 | 0.46 | 99 | 1018.4 |
| 20260504150854 | 40 | 208 | 2.0 | 2.0 | 0.07 | 0.41 | 0.41 | 99 | 1018.8 |
| 20260504150351 | 40 | 189 | 0.0 | 1.0 | 0.05 | 0.40 | 0.40 | 99 | 1018.9 |
| 20260504141321 | 40 | 195 | 1.0 | 2.0 | 0.05 | 0.36 | 0.36 | 99 | 1019.1 |
| 20260504140817 | 40 | 14 | 2.0 | 3.0 | 0.07 | 0.35 | 0.35 | 99 | 1019.1 |
| 20260504140313 | 40 | 53 | 2.0 | 6.0 | 0.07 | 0.35 | 0.35 | 99 | 1019.0 |
| 20260504130742 | 40 | 303 | 2.0 | 2.0 | 0.05 | 0.29 | 0.29 | 99 | 1019.5 |
| 20260504130238 | 40 | 110 | 2.0 | 3.0 | 0.00 | 0.28 | 0.28 | 99 | 1019.5 |
| 20260504120202 | 40 | 147 | 0.0 | 2.0 | 0.05 | 0.23 | 0.23 | 99 | 1019.8 |
| 20260504110629 | 40 | 206 | 1.0 | 1.0 | 0.14 | 0.18 | 0.18 | 99 | 1020.2 |
| 20260504110125 | 40 | 201 | 0.0 | 1.0 | 0.07 | 0.17 | 0.17 | 99 | 1020.2 |
| 20260504100550 | 39 | 218 | 2.0 | 2.0 | 0.05 | 0.10 | 0.10 | 99 | 1020.3 |
| 20260504081944 | 40 | 187 | 0.0 | 0.0 | 0.07 | 0.02 | 0.02 | 99 | 1020.7 |
| 20260504081441 | 40 | 187 | 0.0 | 0.0 | 0.05 | 0.01 | 0.01 | 99 | 1020.6 |
| 20260504080937 | 40 | 187 | 0.0 | 0.0 | 0.00 | 0.00 | 0.00 | 99 | 1020.6 |
| 20260504080434 | 40 | 187 | 0.0 | 0.0 | 0.07 | 0.00 | 0.00 | 99 | 1020.7 |
| 20260504070402 | 40 | 188 | 1.0 | 2.0 | 0.07 | 0.27 | 0.27 | 99 | 1020.6 |
| 20260504050749 | 41 | 193 | 0.0 | 1.0 | 0.07 | 0.15 | 0.15 | 94 | 1020.6 |
| 20260504050247 | 42 | 191 | 0.0 | 0.0 | 0.07 | 0.15 | 0.15 | 94 | 1020.6 |